Wind_Speed
28 25 25 22 19 14 10 6 4 1 4 9 8 9 9 8 8 11 9 11 9 5 4 5 3 5 6 9 10 9 6 6 9 17 9 16 17 10 10 5 3 1 2 2
29 25 25 20 18 12 8 6 3 4 6 9 6 8 8 8 4 2 7 8 11 11 6 2 6 3 8 10 16 10 8 4 7 6 8 11 14 14 16 14 10 5 1 4
24 27 22 20 15 10 8 6 5 7 10 13 12 8 5 6 8 8 9 9 11 8 3 3 5 5 10 13 10 10 6 9 1 4 2 9 23 21 17 13 6 11 16 12
35 26 23 18 14 10 9 7 6 6 11 16 18 13 9 7 6 7 10 7 7 5 4 6 6 5 11 13 9 9 7 7 6 4 4 7 7 13 20 22 25 11 20 18
24 26 22 17 13 11 10 11 8 9 14 16 16 13 13 10 9 10 5 6 6 7 7 5 6 6 6 5 11 9 7 6 7 4 4 3 4 8 11 17 19 17 18 20
27 26 16 14 12 11 10 9 9 10 13 18 16 14 15 14 12 10 11 11 5 5 4 4 4 6 8 6 5 9 6 5 4 2 5 8 8 11 14 13 16 15 15 14
23 23 17 14 12 11 10 12 12 14 16 21 18 17 15 15 14 11 11 11 7 6 5 7 7 7 4 4 5 8 8 7 7 1 2 1 3 4 5 13 14 13 15 20
29 27 19 14 13 12 12 13 14 16 15 21 19 18 19 17 15 11 10 9 7 8 9 10 6 5 3 0 4 7 7 5 3 4 7 3 4 6 8 9 10 11 13 14
27 30 16 14 14 12 14 12 15 18 20 24 20 20 18 17 16 12 10 9 9 10 10 6 4 4 3 4 2 4 7 9 5 1 3 2 10 6 6 7 11 13 14 14
26 25 15 15 14 14 14 15 18 17 17 17 22 24 24 21 17 13 12 11 10 13 10 6 3 2 3 2 3 3 5 4 8 7 5 4 5 9 6 6 4 5 9 16
30 29 20 17 15 15 15 15 18 17 16 19 22 19 22 18 18 14 13 12 12 12 8 6 4 3 5 3 3 3 3 1 3 5 4 5 7 8 8 8 11 15 18 22
27 32 20 17 16 15 17 17 17 19 18 18 20 19 19 18 17 15 14 12 13 12 10 8 6 5 4 6 2 9 7 9 5 4 5 7 8 10 13 19 22 25 29 30
32 24 23 19 16 16 16 18 19 21 17 22 21 20 19 18 18 17 15 13 9 14 12 8 7 5 6 4 8 7 9 11 13 13 11 15 15 18 22 25 26 27 30 32
38 27 23 18 18 19 20 20 22 22 23 19 22 18 17 16 16 16 15 14 11 11 12 12 11 9 8 12 11 10 13 11 12 12 16 18 19 21 24 25 27 27 27 29
33 24 22 20 19 21 25 24 23 23 16 25 24 20 16 14 14 15 15 14 13 11 12 12 11 11 10 11 12 14 15 17 16 16 12 14 17 17 18 19 19 20 22 22
28 25 24 23 25 27 29 28 24 20 23 26 24 20 17 14 13 13 13 12 11 10 11 11 11 10 8 6 9 14 12 13 10 12 14 16 16 14 15 16 18 20 21 22
30 29 27 26 27 29 30 26 22 28 26 21 19 16 16 14 13 13 13 11 10 8 6 7 6 8 10 14 17 12 11 15 18 15 13 13 15 16 17 15 15 18 21 23
33 31 29 29 30 31 22 29 31 26 22 12 8 17 16 15 14 12 11 10 9 8 6 5 7 9 11 8 11 10 11 10 10 12 12 13 15 14 15 18 22 24 27 27
34 34 32 32 32 29 29 28 30 19 9 7 14 17 17 14 14 12 10 8 7 6 6 7 6 10 8 9 10 10 8 11 11 14 15 14 15 17 20 22 25 29 32 35
39 36 34 34 30 25 29 26 22 11 7 8 17 12 15 12 11 8 6 6 5 4 6 7 10 16 15 13 14 13 13 14 15 14 14 16 17 19 22 27 34 39 41 41
42 39 36 32 26 30 25 13 11 9 7 11 14 12 9 8 5 3 2 2 3 4 4 6 5 8 13 16 17 17 18 18 18 18 20 23 27 32 37 42 44 44 43 40
41 35 30 33 29 16 7 13 8 9 7 15 14 11 8 5 2 2 3 4 4 4 4 5 5 10 12 13 17 19 20 20 21 24 28 31 38 43 47 49 50 47 44 40
38 26 34 28 11 10 10 12 10 9 14 17 13 8 4 2 2 3 4 4 5 4 5 4 9 8 10 12 16 19 21 24 27 30 34 39 44 47 47 44 39 38 36 33
31 25 22 13 8 9 10 15 9 11 16 15 9 3 2 2 3 4 4 5 3 3 4 4 8 8 7 9 13 17 21 24 30 36 40 41 39 37 33 32 34 32 33 31
23 14 12 13 14 19 17 14 12 14 12 7 4 2 2 3 3 3 4 3 4 5 5 6 8 9 12 15 19 24 30 33 34 33 33 32 31 31 30 31 31 31 34 34
21 10 14 21 22 15 12 11 9 8 7 7 4 2 2 3 3 3 4 3 3 7 11 12 14 17 21 25 29 31 31 30 29 29 30 30 30 31 31 30 30 31 35 34
13 17 29 27 20 16 11 5 6 12 10 6 3 1 2 1 2 2 4 7 13 16 17 19 21 24 27 30 30 28 27 26 26 28 28 28 29 31 32 32 31 33 34 35
Wind_Direction
254 244 255 280 294 297 293 296 307 158 175 157 140 124 131 113 110 100 120 137 124 121 122 95 68 112 124 151 177 144 135 141 129 187 171 184 182 194 176 150 234 242 48 124
243 242 250 273 282 284 276 272 246 180 187 152 137 155 143 132 112 95 82 116 144 125 135 111 121 181 153 134 144 146 118 158 116 169 215 219 208 194 198 222 251 195 162 160
244 238 246 269 268 268 259 249 218 188 194 168 155 151 150 146 140 122 132 120 110 102 94 119 152 144 156 168 158 144 127 166 178 151 133 227 223 214 213 204 214 207 217 228
232 233 234 258 253 252 248 232 211 191 200 182 158 167 158 154 137 139 124 126 127 115 126 120 150 161 168 179 172 161 128 175 186 165 157 193 205 223 216 223 230 228 238 249
240 228 231 243 239 240 233 229 214 199 171 178 165 162 156 184 178 138 156 152 157 143 152 90 166 157 174 175 203 200 181 174 182 217 211 207 201 184 206 227 241 250 254 253
223 224 223 233 231 236 233 222 207 198 186 180 164 182 182 187 168 167 166 125 169 167 154 188 162 143 153 172 209 195 199 215 201 201 268 265 275 248 236 222 224 232 239 251
228 200 222 233 228 231 224 216 208 198 186 178 181 195 196 182 185 184 174 174 167 139 134 134 122 123 113 125 154 178 197 201 194 236 186 283 208 220 212 209 217 222 222 235
213 223 227 228 226 224 217 215 202 195 187 181 194 200 193 185 192 186 190 192 185 156 146 112 97 95 80 46 170 165 155 133 159 194 222 214 231 196 167 172 223 234 244 259
211 204 213 220 222 218 211 210 199 200 190 191 198 190 184 192 192 185 186 181 181 174 163 147 154 167 162 171 191 204 200 186 195 210 282 300 194 222 226 237 242 259 252 269
212 205 205 214 214 210 209 205 199 197 198 190 188 186 185 182 185 183 181 179 173 172 178 172 192 153 191 174 209 191 200 216 227 240 265 273 269 259 259 222 252 260 269 268
207 206 204 207 206 207 209 200 192 191 185 185 187 191 188 189 193 181 178 174 176 178 166 192 160 158 190 187 182 190 211 225 222 217 234 260 270 269 247 251 261 279 288 291
209 197 194 199 198 203 199 188 180 183 181 179 178 185 187 191 194 200 182 183 186 184 181 191 192 184 200 197 258 222 208 212 201 223 240 263 290 287 277 271 279 287 292 292
182 191 200 187 193 196 186 177 179 178 176 171 172 183 184 187 193 200 203 198 193 199 203 207 216 218 210 186 230 249 262 252 247 253 263 271 284 288 290 294 295 295 296 298
195 187 194 178 188 186 177 171 173 172 167 165 165 168 179 184 192 196 196 193 197 189 205 219 223 226 233 230 240 246 260 268 260 258 262 282 290 294 298 297 299 301 301 301
163 187 172 177 179 172 167 159 166 163 172 160 149 150 156 164 177 190 192 195 201 209 218 222 227 236 249 258 260 256 258 266 269 275 282 284 297 307 310 308 312 317 317 311
174 167 168 173 170 167 159 155 164 155 153 148 139 143 147 142 141 149 162 175 185 203 219 222 231 238 237 252 255 272 275 263 257 273 282 282 287 302 313 319 321 323 325 329
165 167 169 167 165 164 161 157 158 153 152 142 127 144 154 153 153 150 148 155 162 174 186 212 227 229 233 248 256 275 257 253 262 264 263 279 289 299 302 310 321 327 330 331
163 167 167 163 164 158 161 154 152 152 148 137 137 142 146 147 154 154 157 166 170 180 195 225 240 236 243 248 251 262 257 255 253 268 274 280 287 296 307 314 317 318 319 318
164 162 159 158 162 166 163 160 159 160 156 143 153 144 146 147 148 153 159 168 188 196 214 227 240 238 233 243 258 257 245 249 256 265 273 280 292 299 308 313 316 316 317 316
161 159 164 164 166 170 166 165 175 189 192 159 161 156 145 146 148 156 170 186 202 222 228 237 246 251 250 254 258 248 249 256 263 265 267 271 279 289 295 303 311 315 317 318
163 167 169 164 161 162 164 165 169 176 159 164 158 149 143 142 144 122 158 217 246 242 228 222 248 257 252 251 245 247 258 262 266 272 280 289 295 301 305 310 314 314 313 311
165 168 166 159 150 158 175 175 178 176 187 174 164 152 145 144 186 234 227 237 231 230 222 221 240 266 262 259 248 250 256 263 273 282 290 298 305 310 313 315 315 315 313 311
166 162 159 163 164 177 172 171 170 183 172 171 164 160 165 184 245 230 222 231 230 247 224 236 265 303 291 271 262 265 272 280 289 297 301 305 307 308 309 311 313 312 312 311
163 158 167 173 185 167 159 178 179 171 161 159 157 194 206 248 236 207 220 232 252 242 231 258 316 312 309 298 295 296 297 299 301 301 303 305 309 312 314 314 314 313 312 309
165 165 178 185 150 145 151 149 148 154 155 162 185 212 229 215 200 198 229 231 239 230 264 315 310 304 303 302 301 305 307 308 308 309 313 318 317 316 316 315 313 310 313 310
172 167 164 163 149 157 143 135 145 149 157 150 143 183 204 183 190 209 218 252 257 313 317 307 300 300 306 307 309 312 314 316 319 321 321 323 322 322 321 320 317 311 312 313
174 163 151 153 149 163 161 221 191 156 149 144 132 134 168 289 242 255 260 295 306 305 305 302 298 300 303 307 312 315 317 322 325 326 325 325 326 324 322 322 323 317 317 318
Height
3020 3023 3027 3029 3028 3027 3026 3025 3026 3026 3025 3028 3026 3028 3029 3030 3032 3032 3033 3035 3036 3039 3040 3040 3041 3041 3043 3045 3048 3051 3052 3055 3059 3063 3065 3068 3070 3073 3075 3077 3080 3080 3081 3084
3011 3017 3021 3023 3023 3023 3022 3022 3023 3023 3025 3026 3027 3028 3030 3031 3032 3032 3033 3034 3037 3039 3041 3043 3042 3043 3044 3046 3047 3050 3054 3057 3060 3064 3068 3067 3069 3071 3073 3076 3078 3079 3081 3082
3004 3010 3015 3017 3018 3018 3018 3020 3020 3021 3023 3024 3026 3028 3030 3031 3032 3033 3033 3036 3037 3040 3042 3042 3043 3043 3045 3048 3049 3052 3055 3057 3058 3060 3061 3063 3066 3068 3071 3074 3076 3077 3077 3077
2996 3003 3008 3012 3013 3013 3015 3016 3016 3017 3019 3021 3023 3027 3030 3031 3033 3033 3034 3037 3038 3040 3041 3042 3044 3044 3046 3048 3051 3053 3054 3056 3058 3059 3061 3062 3064 3065 3068 3070 3072 3074 3075 3075
2990 2995 2999 3005 3007 3008 3010 3012 3014 3014 3017 3019 3021 3025 3029 3031 3032 3033 3035 3037 3037 3039 3041 3043 3043 3043 3046 3049 3051 3053 3054 3055 3057 3059 3060 3061 3063 3063 3065 3067 3068 3070 3071 3072
2983 2989 2995 3000 3002 3005 3006 3008 3011 3013 3015 3017 3022 3025 3027 3029 3031 3033 3034 3037 3037 3039 3041 3043 3043 3044 3046 3047 3049 3051 3054 3056 3058 3059 3059 3059 3060 3059 3060 3062 3064 3066 3067 3068
2979 2985 2991 2995 2997 3000 3002 3005 3008 3010 3013 3016 3020 3022 3026 3029 3030 3032 3034 3036 3037 3039 3041 3043 3045 3047 3047 3048 3049 3050 3052 3054 3056 3057 3058 3060 3057 3056 3057 3059 3060 3060 3061 3059
2972 2978 2987 2991 2993 2995 2999 3002 3005 3007 3010 3014 3016 3020 3023 3028 3029 3031 3034 3036 3038 3039 3041 3042 3045 3048 3050 3051 3051 3051 3052 3053 3055 3056 3056 3056 3054 3055 3057 3057 3057 3057 3056 3056
2968 2975 2982 2986 2989 2992 2995 2999 3001 3004 3006 3009 3014 3018 3022 3025 3028 3031 3032 3035 3037 3040 3042 3043 3045 3047 3048 3048 3049 3051 3053 3053 3056 3056 3056 3053 3052 3054 3055 3055 3054 3054 3054 3054
2964 2971 2978 2982 2985 2988 2992 2995 2997 3001 3005 3007 3011 3015 3019 3022 3026 3029 3031 3033 3036 3039 3042 3044 3045 3048 3049 3050 3050 3049 3050 3052 3054 3056 3055 3053 3053 3053 3053 3055 3057 3052 3051 3051
2960 2966 2974 2979 2982 2985 2990 2993 2995 3000 3003 3005 3008 3013 3017 3021 3024 3027 3030 3033 3036 3039 3041 3043 3045 3047 3048 3050 3050 3050 3050 3051 3051 3051 3052 3053 3051 3051 3053 3051 3049 3048 3048 3046
2955 2960 2970 2975 2979 2984 2987 2990 2993 2998 3002 3005 3009 3013 3017 3021 3024 3027 3028 3031 3033 3036 3039 3042 3043 3044 3045 3047 3049 3048 3050 3049 3051 3053 3051 3050 3050 3049 3049 3046 3046 3045 3042 3039
2951 2960 2967 2972 2978 2983 2986 2988 2992 2997 2999 3004 3007 3011 3016 3019 3022 3025 3028 3030 3032 3034 3037 3040 3042 3043 3045 3045 3046 3047 3048 3049 3048 3050 3048 3047 3048 3045 3043 3042 3040 3037 3034 3030
2952 2958 2965 2970 2977 2981 2985 2987 2992 2997 3001 3002 3007 3010 3015 3018 3021 3023 3026 3029 3031 3033 3035 3037 3038 3040 3042 3043 3045 3044 3045 3045 3044 3045 3044 3045 3043 3040 3039 3037 3034 3031 3028 3024
2949 2957 2963 2971 2978 2981 2984 2988 2994 2998 3003 3003 3006 3011 3014 3016 3019 3022 3024 3026 3029 3031 3033 3035 3036 3038 3041 3040 3040 3039 3041 3041 3042 3042 3041 3039 3038 3036 3034 3032 3030 3027 3023 3020
2950 2957 2965 2972 2977 2982 2985 2989 2994 2999 3002 3006 3007 3012 3014 3017 3019 3020 3022 3024 3026 3029 3031 3032 3033 3035 3038 3037 3036 3037 3037 3037 3038 3039 3038 3037 3036 3033 3031 3028 3026 3023 3020 3016
2950 2958 2967 2974 2979 2984 2988 2992 2996 2999 3004 3008 3010 3013 3015 3017 3019 3021 3022 3024 3026 3027 3028 3030 3031 3032 3034 3032 3032 3032 3032 3032 3032 3033 3034 3034 3032 3031 3028 3025 3022 3019 3016 3013
2952 2963 2969 2975 2981 2988 2992 2994 2998 3002 3006 3008 3010 3013 3015 3017 3019 3020 3022 3023 3025 3026 3027 3028 3029 3030 3030 3029 3027 3028 3028 3028 3029 3029 3029 3028 3027 3025 3023 3020 3018 3017 3013 3010
2957 2964 2972 2977 2983 2989 2993 2997 3001 3004 3009 3008 3010 3012 3015 3017 3018 3020 3022 3023 3024 3025 3025 3026 3028 3027 3026 3025 3024 3025 3025 3025 3024 3023 3023 3022 3021 3018 3017 3014 3010 3008 3006 3003
2958 2966 2973 2978 2984 2990 2996 3001 3003 3006 3007 3008 3009 3011 3012 3017 3018 3020 3022 3022 3022 3022 3024 3023 3023 3022 3023 3022 3022 3022 3022 3021 3021 3020 3019 3017 3015 3013 3010 3007 3003 2999 2996 2994
2956 2965 2973 2979 2985 2992 2997 3000 3003 3005 3007 3008 3009 3011 3013 3016 3018 3019 3020 3020 3020 3019 3021 3021 3019 3018 3019 3018 3019 3019 3018 3017 3016 3015 3013 3011 3007 3004 3000 2998 2995 2990 2986 2983
2960 2969 2976 2982 2989 2994 2997 2998 3001 3003 3005 3006 3009 3011 3013 3014 3016 3017 3018 3018 3018 3016 3017 3017 3014 3015 3015 3015 3015 3015 3014 3013 3011 3009 3007 3004 3000 2995 2991 2985 2981 2977 2973 2970
2963 2971 2976 2983 2986 2988 2990 2992 2996 2998 3000 3004 3007 3010 3012 3013 3015 3015 3016 3015 3015 3015 3014 3012 3011 3012 3012 3012 3011 3011 3010 3009 3009 3006 3002 2997 2991 2987 2982 2978 2973 2968 2964 2961
2966 2970 2975 2980 2981 2983 2986 2990 2994 2997 3000 3003 3006 3009 3011 3011 3012 3014 3013 3014 3013 3012 3011 3009 3010 3009 3009 3010 3010 3010 3008 3005 3002 2997 2992 2989 2984 2979 2974 2969 2966 2961 2957 2954
2966 2969 2972 2975 2977 2981 2987 2991 2994 2998 3000 3003 3005 3007 3010 3010 3011 3011 3012 3012 3010 3009 3008 3009 3008 3007 3006 3006 3005 3003 3000 2996 2992 2988 2983 2978 2974 2969 2966 2962 2957 2954 2950 2946
2964 2966 2969 2973 2978 2984 2988 2991 2995 2997 3000 3003 3005 3006 3007 3008 3009 3009 3010 3011 3009 3008 3008 3007 3004 3003 3001 2999 2997 2995 2992 2988 2983 2979 2975 2970 2967 2962 2958 2955 2951 2946 2942 2937
2962 2965 2969 2972 2979 2984 2989 2994 2997 2998 3001 3002 3004 3006 3007 3008 3008 3009 3009 3009 3007 3005 3004 3002 2999 2998 2995 2993 2990 2988 2984 2981 2977 2972 2969 2965 2960 2957 2952 2947 2943 2938 2934 2929